{"data":{"norad_id":42838,"intl_designator":"2017-042P","name":"LEMUR-2-ANDIS","alt_names":[],"object_type":"PAYLOAD","status":"ACTIVE","operator":null,"country":"US","launch_date":"2017-07-14","launch_site_code":"TYMSC","launch_vehicle":null,"mission":null,"orbit_class":"UNKNOWN","rcs_meters":null,"size_class":null,"mass_kg":null,"dimensions":null,"purposes":["earth_obs"],"wikipedia_slug":null,"has_3d_model":false,"image_url":null,"decayed_at":null,"tle_current":{"epoch":"2026-05-24T23:09:05.512032Z","epoch_age_seconds":88494,"freshness":"FRESH","line1":"1 42838U 17042P   26144.96464713  .00019374  00000+0  59375-3 0  9991","line2":"2 42838  97.3682 325.8195 0009927  91.3981 268.8399 15.33780067484891","mean_motion":15.33780067,"eccentricity":0.0009927,"inclination_deg":97.3682,"raan_deg":325.8195,"arg_perigee_deg":91.3981,"mean_anomaly_deg":268.8399,"bstar":0.00059375,"rev_number":48489,"period_min":93.885690066149,"perigee_km":457.75370047551,"apogee_km":471.33916416204,"semimajor_km":6842.6834323188,"source":"CELESTRAK","updated_at":"2026-05-25T13:38:13.529097Z"}}}